Printer-friendly version

IAU Minor Planet Center

Minor Planet Center

MPEC 2006-Y76 : 2006 SK134

The following Minor Planet Electronic Circular may be linked-to from your own Web pages, but must not otherwise be redistributed electronically.


Read MPEC 2006-Y75 Read MPEC 2007-A01


M.P.E.C. 2006-Y76                                Issued 2006 Dec. 31, 20:14 UT

     The Minor Planet Electronic Circulars contain information on unusual
         minor planets and routine data on comets.  They are published
   on behalf of Commission 20 of the International Astronomical Union by the
          Minor Planet Center, Smithsonian Astrophysical Observatory,
                          Cambridge, MA 02138, U.S.A.

             Prepared using the Tamkin Foundation Computer Network

                              MPC@CFA.HARVARD.EDU
          URL http://cfa-www.harvard.edu/iau/mpc.html  ISSN 1523-6714

                                  2006 SK134

                           Revision to MPEC 2006-S76

Additional Observations:
     K06SD4K  C2001 09 27.38519 02 12 15.58 -02 48 00.9                 EY076644
     K06SD4K  C2001 09 27.40941 02 12 13.35 -02 48 53.2                 EY076644
     K06SD4K  C2001 10 14.44976 01 45 41.92 -11 45 43.6          19.8 R EY076644
     K06SD4K  C2001 10 14.47087 01 45 39.90 -11 46 15.7          19.6 R EY076644
     K06SD4K  C2001 10 14.49206 01 45 37.96 -11 46 49.1                 EY076644

Observer details:
644 Palomar Mountain/NEAT.  Observers E. F. Helin, S. Pravdo, K. Lawrence,
    K. Kuluhiwa, M. Hicks.  Measurer R. Matson.  1.2-m Schmidt + CCD.

Orbital elements:
2006 SK134                                               Earth MOID = 0.1319 AU
Epoch 2007 Apr. 10.0 TT = JDT 2454200.5                 MPC
M 107.57772              (2000.0)            P               Q
n   0.38245720     Peri.   74.30205     -0.19572470     +0.97922726
a   1.8796666      Node   185.34002     -0.96414538     -0.18227716
e   0.5362244      Incl.   34.69197     +0.17920809     +0.08882007
P   2.58           H   18.4           G   0.15           U   4
Residuals in seconds of arc
010927 644  0.2+  0.3-    060927 473  0.1+  0.3+    061001 448  0.2-  1.6+
010927 644  0.0   0.4-    060927 A17  0.2+  0.0     061001 H51  0.1-  0.2-
011014 644  0.3-  0.0     060927 473  0.3-  0.2+    061001 H51  1.1+  0.4-
011014 644  0.5-  0.3+    060927 473  0.2-  0.1+    061001 H51  1.8-  0.0
011014 644  0.4+  0.5-    060927 473  0.3-  0.2-    061001 H51  1.2+  0.0
060927 703  0.4-  0.2+    060927 473  0.5-  0.4-    061001 H51  0.6-  0.8-
060927 703  0.6-  0.1+    060927 473  0.3-  0.1+    061001 H51  1.0-  0.3-
060927 703  0.0   0.9-    060927 473  0.4-  0.1+    061004 448  0.1-  0.0
060927 703  0.3+  1.3+    060927 A06  0.6-  0.4-    061004 448  0.3-  0.1-
060927 703  0.2-  0.3-    060927 473  0.0   0.2+    061004 448  0.2-  0.6-
060927 703  0.8-  0.1+    060927 A17  0.3-  0.3+    061007 J95  0.4+  0.6+
060927 703  0.7-  0.8-    060927 A06  0.5+  0.5-    061007 J95  0.3+  0.3-
060927 703  0.2-  0.4-    060927 J97  0.6-  0.3-    061007 J95  0.1+  0.2+
060927 703  0.3+  0.3-    060928 291  0.9+  0.4+    061010 204  0.2+  0.4-
060927 703  0.6-  0.9-    060928 291  1.1+  0.5+    061010 204  0.3-  0.0
060927 703  0.6-  0.2-    060928 291  0.9+  0.3-    061013 448  0.5-  0.2+
060927 703  0.1+  0.5-    060928 198  0.4-  0.2+    061013 448  0.1-  0.4-
060927 703  0.1-  0.2-    060928 198  0.3-  0.0     061013 448  0.1+  0.1-
060927 703  0.9-  0.2+    060928 198  0.0   0.1-    061023 711  0.2-  1.0+
060927 703  0.1-  0.3-    060928 198  0.2+  0.0     061023 711  0.5-  0.1-
060927 118  0.5-  0.9-    060928 198  0.3+  0.1-    061023 711  0.3+  0.1-
060927 118  0.7+  0.1-    060929 H51  1.3-  0.7+    061031 448  1.6+  0.2+
060927 118  0.2-  0.4-    060929 H51 (1.7+  6.2+)   061031 448 (2.8-  1.8-)
060927 A17  0.3+  0.3-    060929 H51  1.0-  1.4+    061111 G96  0.3+  0.1+
060927 473  0.3-  0.2-    060929 A41  0.2-  0.4-    061111 G96  1.1-  0.5+
060927 473  0.5-  0.3-    060929 A41  0.2+  0.9-    061111 G96  0.3+  0.4-
060927 473  0.1-  0.3+    060929 A41  0.8-  0.2+    061111 G96  0.1+  0.5-
060927 473  0.3-  0.2+    061001 448  0.2-  0.1-
060927 473  0.3-  0.2+    061001 448  0.0   0.4+

Ephemeris:
2006 SK134               a,e,i = 1.88, 0.54, 35                  q = 0.8717
Date    TT    R. A. (2000) Decl.     Delta      r     Elong.  Phase     V
2006 12 31    00 11.60   -13 57.6    2.007    2.048    78.3    28.0    22.7
2007 01 10    00 26.75   -12 54.7    2.188    2.108    72.3    26.4    22.9
2007 01 20    00 41.95   -11 45.6    2.363    2.165    66.3    24.6    23.1
2007 01 30    00 57.21   -10 32.9    2.532    2.220    60.5    22.7    23.2

Gareth V. Williams           (C) Copyright 2006 MPC           M.P.E.C. 2006-Y76

Read MPEC 2006-Y75 Read MPEC 2007-A01


Our Web policy. Index to the CBAT/MPC/ICQ pages.


Valid HTML 4.01!